Location: Arrodets-la-Barthe
(43.0306°N, 0.2829°E)
Time: 16:41:36
(UTC+00:00)

STRAND 1 - Pass Details

Date: 02 April 2023
Orbit: 767 x 779 km, 98.4° (Epoch: 04 June)

Event Time Altitude Azimuth Distance (km) Brightness Sun altitude
Rises 19:39:44 0° 4° (N) 3,249 ? -13.9°
Reaches altitude 10° 19:42:12 10° 356° (N) 2,317 ? -14.3°
Maximum altitude 19:46:46 34° 292° (WNW) 1,246 ? -15.1°
Drops below altitude 10° 19:51:18 10° 229° (SW) 2,303 ? -15.8°
Sets 19:53:46 0° 220° (SW) 3,226 ? -16.2°
